sat.trackr.live / text

‹ back to catalog

EUTELSAT 10B

NORAD 54259 · 2022-157A

PAYLOAD ACTIVE UNKNOWN

§ Identity

Operator
Country
EUTE
Launch date
2022-11-23
Launch site
AFETR
Launch vehicle
Mass (kg)
RCS (m²)

Purposes: comms

External: N2YO · Heavens-Above · Gunter

§ Orbital elements

Epoch: 2026-05-25T03:47:24.495360Z

Period
1,436.17 min
Inclination
0.0607°
Eccentricity
0.0001273
Mean motion
1.00266953 rev/d
Perigee alt
35,782.6 km
Apogee alt
35,793.3 km
Semi-major
42,166.1 km
B*
0.0000e+0
RAAN
102.3209°
Arg perigee
9.6084°
Mean anomaly
197.6476°
Rev number
1,279

§ Raw data

EUTELSAT 10B1 54259U 22157A   26145.15792240  .00000065  00000+0  00000+0 0  99992 54259   0.0607 102.3209 0001273   9.6084 197.6476  1.00266953 12798

JSON: /api/v1/satellites/54259 · /tle

For live sub-satellite position, see the globe view (requires WebGL).

§ Visibility from observer

Set your observer location to see the next 7 days of passes ≥ 10°. The values pass through the URL so the page stays shareable.

No JS? Fill the form by hand. The geolocation button needs JavaScript.